Location: Aalsum
(53.3404°N, 6.0062°E)
Time: 04:18:04
(UTC+00:00)

BlueWalker 3 - Pass Details

Date: 28 January 2023
Orbit: 497 x 515 km, 53.2° (Epoch: 24 March)

Event Time Altitude Azimuth Distance (km) Brightness Sun altitude
Rises 16:57:35 0° 202° (SSW) 2,587 6.2 -7.1°
Reaches altitude 10° 17:00:15 10° 183° (S) 1,712 5.0 -7.5°
Maximum altitude 17:02:55 18° 139° (SE) 1,296 3.8 -7.8°
Drops below altitude 10° 17:05:37 10° 95° (E) 1,729 4.1 -8.2°
Enters shadow 17:05:52 - 93° (E) 1,801 4.2 -8.3°
